sat.trackr.live / text

‹ back to catalog

EUTELSAT 70B

NORAD 39020 · 2012-069A

PAYLOAD ACTIVE UNKNOWN

§ Identity

Operator
Country
EUTE
Launch date
2012-12-03
Launch site
SEAL
Launch vehicle
Mass (kg)
RCS (m²)
22.59

Purposes: comms

External: N2YO · Heavens-Above · Gunter

§ Orbital elements

Epoch: 2026-09-20T03:34:11.186112Z

Period
1,436.11 min
Inclination
0.0647°
Eccentricity
0.0003703
Mean motion
1.00271190 rev/d
Perigee alt
35,771.1 km
Apogee alt
35,802.4 km
Semi-major
42,164.9 km
B*
0.0000e+0
RAAN
355.5492°
Arg perigee
184.8728°
Mean anomaly
302.6803°
Rev number
5,046

§ Raw data

EUTELSAT 70B1 39020U 12069A   26263.14874058 -.00000048  00000+0  00000+0 0  99992 39020   0.0647 355.5492 0003703 184.8728 302.6803  1.00271190 50465

JSON: /api/v1/satellites/39020 · /tle

For live sub-satellite position, see the globe view (requires WebGL).

§ Visibility from observer

Set your observer location to see the next 7 days of passes ≥ 10°. The values pass through the URL so the page stays shareable.

No JS? Fill the form by hand. The geolocation button needs JavaScript.